Waarnemingen

Advertentie
Mijn weer
Ronchi Dei Legionari, Italië (16108): temperatuur & dauwpunt: 11.01.2019 01:00:00 - 17.01.2019 01:00:00 (CET)Ronchi Dei Legionari, Italië (16108): windsnelheid: 11.01.2019 01:00:00 - 17.01.2019 01:00:00 (CET)Ronchi Dei Legionari, Italië (16108): windrichting: 11.01.2019 01:00:00 - 17.01.2019 01:00:00 (CET)Ronchi Dei Legionari, Italië (16108): luchtdruk: 11.01.2019 01:00:00 - 17.01.2019 01:00:00 (CET)Ronchi Dei Legionari, Italië (16108): zicht: 11.01.2019 01:00:00 - 17.01.2019 01:00:00 (CET)Ronchi Dei Legionari, Italië (16108): neerslag: 11.01.2019 01:00:00 - 17.01.2019 01:00:00 (CET)
Datum & Tijd tt [°C] td [°C] ff [km/u] ff [kn] dd ppp [hPa] vv [km] rr [mm]
17.01.2019 01:00:00 3,7 2,3 5 3 N 1017,9 10 -
17.01.2019 00:00:00 4,0 3,0 4 2 NNW - 10 -
16.01.2019 23:00:00 5,0 3,0 5 3 N - 10 -
16.01.2019 22:00:00 5,1 3,1 5 3 N 1018,9 10 0,0
16.01.2019 21:00:00 5,0 3,0 4 2 NNO - 10 -
16.01.2019 20:00:00 5,0 3,0 8 4 N - 10 -
16.01.2019 19:00:00 5,0 2,9 4 2 NO 1019,0 10 -
16.01.2019 18:00:00 6,0 3,0 4 2 NO - 10 -
16.01.2019 17:00:00 6,0 3,0 4 2 - - 10 -
16.01.2019 16:00:00 8,3 3,2 11 6 ZZW 1018,8 10 0,0
16.01.2019 15:00:00 9,0 4,0 11 6 Z - 10 -
16.01.2019 14:00:00 10,0 4,0 11 6 ZZW - 10 -
16.01.2019 13:00:00 9,3 4,6 11 6 Z 1019,1 10 -
16.01.2019 12:00:00 9,0 5,0 13 7 Z - 10 -
16.01.2019 11:00:00 9,0 5,0 13 7 ZZO - 10 -
16.01.2019 10:00:00 8,4 5,4 13 7 ZO 1019,8 10 0,0
16.01.2019 09:00:00 3,0 0,0 15 8 O - 10 -
16.01.2019 08:00:00 1,0 -1,0 4 2 O - 10 -
16.01.2019 07:00:00 -0,5 -2,6 5 3 NNO 1018,9 10 -
16.01.2019 06:00:00 1,0 -2,0 5 3 NNO - 10 -
16.01.2019 05:00:00 2,0 -2,0 5 3 NNO - 10 -
16.01.2019 04:00:00 1,2 -2,1 4 2 NNO 1019,2 10 0,0
16.01.2019 03:00:00 1,0 -3,0 4 2 NO - 10 -
16.01.2019 02:00:00 0,0 -3,0 5 3 NNO - 10 -
16.01.2019 01:00:00 -0,4 -3,2 5 3 NNO 1019,8 10 -
16.01.2019 00:00:00 0,0 -3,0 5 3 NO - 10 -
15.01.2019 23:00:00 0,0 -3,0 4 2 ONO - 10 -
15.01.2019 22:00:00 0,0 -2,6 5 3 NO 1020,4 10 0,0
15.01.2019 21:00:00 0,0 -3,0 8 4 NNO - 10 -
15.01.2019 20:00:00 1,0 -2,0 4 2 NNO - 10 -
15.01.2019 19:00:00 2,2 -2,8 5 3 NO 1019,5 10 -
15.01.2019 18:00:00 4,0 -3,0 4 2 NO - 10 -
15.01.2019 17:00:00 8,0 -2,0 5 3 ZO - 10 -
15.01.2019 16:00:00 9,8 -3,3 8 4 Z 1018,9 10 0,0
15.01.2019 15:00:00 11,0 -4,0 13 7 ZW - 10 -
15.01.2019 14:00:00 10,0 -3,0 5 3 - - 10 -
15.01.2019 13:00:00 9,7 -1,6 5 3 WNW 1018,8 10 -
15.01.2019 12:00:00 - - - - - - - -
15.01.2019 11:00:00 - - - - - - - -
15.01.2019 10:00:00 6,4 -5,1 2 1 - 1017,9 10 0,0
15.01.2019 09:00:00 2,0 -6,0 15 8 OZO - 10 -
15.01.2019 08:00:00 1,0 -6,0 21 11 O - 10 -
15.01.2019 07:00:00 0,0 -7,0 2 1 - - 10 -
15.01.2019 06:00:00 2,0 -6,0 13 7 NNO - 10 -
15.01.2019 05:00:00 2,0 -5,0 11 6 N - 10 -
15.01.2019 04:00:00 4,0 -6,7 15 8 NNO 1013,9 10 0,0
15.01.2019 03:00:00 4,0 -5,0 15 8 NNO - 10 -
15.01.2019 02:00:00 4,0 -6,0 15 8 NO - 10 -
15.01.2019 01:00:00 3,1 -6,8 13 7 N 1012,3 10 -
15.01.2019 00:00:00 4,0 -4,0 9 5 NO - 10 -
14.01.2019 23:00:00 2,0 -3,0 4 2 - - 10 -
14.01.2019 22:00:00 4,1 0,1 9 5 N 1009,1 10 0,0
14.01.2019 21:00:00 4,0 2,0 11 6 NNO - 8 -
14.01.2019 20:00:00 4,0 3,0 15 8 NNO - 8 -
14.01.2019 19:00:00 3,2 2,2 5 3 NNW 1005,2 8 -
14.01.2019 18:00:00 5,0 3,0 5 3 O - 10 -
14.01.2019 17:00:00 7,0 4,0 5 3 Z - 10 -
14.01.2019 16:00:00 8,9 4,1 5 3 Z 1003,8 10 0,0
14.01.2019 15:00:00 11,0 4,0 8 4 NW - 10 -
14.01.2019 14:00:00 11,0 4,0 9 5 W - 10 -
14.01.2019 13:00:00 11,3 5,3 11 6 ZW 1002,4 10 -
14.01.2019 12:00:00 11,0 5,0 9 5 ZZW - 10 -
14.01.2019 11:00:00 9,0 4,0 4 2 - - 10 -
14.01.2019 10:00:00 6,2 3,2 5 3 NNO 1001,6 6 0,0
14.01.2019 09:00:00 2,0 1,0 11 6 NNW - 6 -
14.01.2019 08:00:00 2,0 1,0 4 2 N - 7 -
14.01.2019 07:00:00 4,1 2,2 15 8 N 1000,6 10 -
14.01.2019 06:00:00 3,0 2,0 13 7 N - 9 -
14.01.2019 05:00:00 2,0 1,0 8 4 N - 8 -
14.01.2019 04:00:00 2,1 1,2 11 6 NNO 1000,3 10 0,0
14.01.2019 03:00:00 0,0 -1,0 4 2 - - 8 -
14.01.2019 02:00:00 2,0 1,0 4 2 W - 10 -
14.01.2019 01:00:00 1,2 0,1 2 1 - 1001,7 10 -
14.01.2019 00:00:00 1,0 0,0 5 3 N - 10 -
13.01.2019 23:00:00 2,0 0,0 4 2 - - 10 -
13.01.2019 22:00:00 2,7 0,9 2 1 - 1004,8 10 0,0
13.01.2019 21:00:00 4,0 1,0 2 1 - - 10 -
13.01.2019 20:00:00 4,0 1,0 4 2 OZO - 10 -
13.01.2019 19:00:00 4,0 1,1 5 3 O 1006,9 10 -
13.01.2019 18:00:00 5,0 1,0 8 4 OZO - 10 -
13.01.2019 17:00:00 7,0 2,0 2 1 - - 10 -
13.01.2019 16:00:00 8,8 1,7 2 1 - 1008,7 10 0,0
13.01.2019 15:00:00 9,0 2,0 5 3 NW - 10 -
13.01.2019 14:00:00 10,0 2,0 9 5 W - 10 -
13.01.2019 13:00:00 10,2 1,0 9 5 W 1010,5 10 -
13.01.2019 12:00:00 9,0 0,0 4 2 - - 10 -
13.01.2019 11:00:00 7,0 -1,0 4 2 - - 10 -
13.01.2019 10:00:00 4,5 -1,7 4 2 - 1012,0 10 0,0
13.01.2019 09:00:00 1,0 -3,0 9 5 N - 10 -
13.01.2019 08:00:00 0,0 -3,0 11 6 N - 10 -
13.01.2019 07:00:00 -0,5 -3,1 9 5 N 1011,1 10 -
13.01.2019 06:00:00 0,0 -3,0 5 3 NNO - 10 -
13.01.2019 05:00:00 - - - - - - - -
13.01.2019 04:00:00 1,4 -2,2 5 3 NNO 1011,7 10 0,0
13.01.2019 03:00:00 2,0 -2,0 8 4 NNO - 10 -
13.01.2019 02:00:00 2,0 -2,0 5 3 NO - 10 -
13.01.2019 01:00:00 0,9 -1,8 8 4 N 1013,6 10 -
13.01.2019 00:00:00 0,0 -2,0 5 3 NO - 10 -
12.01.2019 23:00:00 1,0 -2,0 8 4 O - 10 -
12.01.2019 22:00:00 -0,1 -2,5 4 2 - 1015,5 10 0,0
12.01.2019 21:00:00 0,0 -3,0 5 3 O - 10 -
12.01.2019 20:00:00 0,0 -3,0 4 2 - - 10 -
12.01.2019 19:00:00 1,8 -2,3 9 5 NNO 1016,8 10 -
12.01.2019 18:00:00 1,0 -3,0 4 2 N - 10 -
12.01.2019 17:00:00 4,0 -2,0 4 2 NW - 10 -
12.01.2019 16:00:00 6,3 -1,5 5 3 NNW 1017,3 10 0,0
12.01.2019 15:00:00 7,0 -1,0 2 1 - - 10 -
12.01.2019 14:00:00 7,0 -1,0 4 2 - - 10 -
12.01.2019 13:00:00 6,1 -2,1 5 3 N 1018,5 10 -
12.01.2019 12:00:00 4,0 -1,0 5 3 N - 10 -
12.01.2019 11:00:00 3,0 -2,0 4 2 - - 10 -
12.01.2019 10:00:00 0,6 -2,5 4 2 - 1019,7 10 0,0
12.01.2019 09:00:00 -1,0 -4,0 5 3 NNO - 10 -
12.01.2019 08:00:00 -2,0 -5,0 8 4 NNO - 10 -
12.01.2019 07:00:00 -2,3 -5,2 4 2 N 1018,7 10 -
12.01.2019 06:00:00 -2,0 -4,0 2 1 NNO - 10 -
12.01.2019 05:00:00 0,0 -4,0 4 2 NNO - 10 -
12.01.2019 04:00:00 0,1 -4,4 4 2 NNO 1019,7 10 0,0
12.01.2019 03:00:00 0,0 -3,0 2 1 - - 10 -
12.01.2019 02:00:00 0,0 -3,0 2 1 NNO - 10 -
12.01.2019 01:00:00 -0,1 -4,2 2 1 - 1020,6 10 -
12.01.2019 00:00:00 -1,0 -4,0 4 2 - - 10 -
11.01.2019 23:00:00 -1,0 -5,0 4 2 NNO - 10 -
11.01.2019 22:00:00 -2,7 -5,6 4 2 N 1021,1 10 0,0
11.01.2019 21:00:00 -3,0 -6,0 5 3 N - 10 -
11.01.2019 20:00:00 -2,0 -5,0 4 2 - - 10 -
11.01.2019 19:00:00 -1,0 -5,3 4 2 O 1021,1 10 -
11.01.2019 18:00:00 1,0 -6,0 2 1 - - 10 -
11.01.2019 17:00:00 5,0 -6,0 4 2 NW - 10 -
11.01.2019 16:00:00 6,1 -5,8 5 3 NW 1020,4 10 0,0
11.01.2019 15:00:00 8,0 -6,0 2 1 - - 10 -
11.01.2019 14:00:00 7,0 -7,0 8 4 O - 10 -
11.01.2019 13:00:00 6,9 -7,2 9 5 OZO 1020,6 10 -
11.01.2019 12:00:00 6,0 -6,0 9 5 OZO - 10 -
11.01.2019 11:00:00 6,0 -5,0 9 5 OZO - 10 -
11.01.2019 10:00:00 4,2 -3,1 5 3 NO 1021,1 10 0,0
11.01.2019 09:00:00 3,0 -4,0 22 12 OZO - 10 -
11.01.2019 08:00:00 -2,0 -5,0 5 3 NNO - 10 -
11.01.2019 07:00:00 -1,8 -4,4 2 1 - 1019,2 10 -
11.01.2019 06:00:00 -3,0 -5,0 2 1 - - 10 -
11.01.2019 05:00:00 -2,0 -4,0 8 4 N - 10 -
11.01.2019 04:00:00 -1,4 -3,8 4 2 - 1018,2 10 0,0
11.01.2019 03:00:00 -1,0 -4,0 9 5 N - 10 -
11.01.2019 02:00:00 -3,0 -5,0 5 3 NNW - 10 -
11.01.2019 01:00:00 -1,7 -3,9 8 4 N 1016,9 10 -

tt = temperatuur
td = dauwpunt
ff = windsnelheid
dd = windrichting
ppp = luchtdruk
vv = zicht
rr = neerslag

Weerstations in de omgeving